Regional Weather Roundup
Issued by NWS

Home | Current Version | Previous Version | Graphics & Text | Print | Product List | Glossary On
Versions: 1 2 3 4 5 6 7 8 9 10 11 12 13 14 15 16 17 18 19 20 21 22 23 24 25 26 27 28 29 30 31 32 33 34 35 36 37 38 39 40 41 42 43 44 45 46 47 48 49 50
000
ASUS43 KIND 020359
RWRIN

WEATHER ROUNDUP FOR INDIANA
NATIONAL WEATHER SERVICE INDIANAPOLIS IN
1200 AM EDT TUE SEP 02 2014

NOTE: "FAIR" INDICATES FEW OR NO CLOUDS BELOW 12,000 FEET WITH NO
SIGNIFICANT WEATHER AND/OR OBSTRUCTIONS TO VISIBILITY.

* - STATION DOES NOT REPORT WEATHER SUCH AS PRECIPITATION OR FOG.

+ - STATION NOT QUALITY CONTROLLED BY THE NATIONAL WEATHER SERVICE.
    USE DATA WITH CAUTION...ESPECIALLY DEWPOINT AND RELATIVE
    HUMIDITY OBSERVATIONS.

INZ001>003-010>013-019-020-020500-
NORTHWEST INDIANA

CITY           SKY/WX    TMP DP  RH WIND       PRES   REMARKS
KNOX *+        MOCLDY    69  65  85 SW5       29.87S
MONTICELLO +   PTCLDY    68  65  92 S3        29.89S
VALPARAISO     MOCLDY    71  65  81 SW7       29.87S

$$

LMZ046-743>745-020500-
SOUTHERN LAKE MICHIGAN

STATION/POSITION TIME  TEMP WIND        PRES
                       AIR  DIR/SP/G
                 (UTC) (F)  (DEG/KT/KT) (MB)
MICHIGAN CITY    0300   74  190/ 13/ 17   N/A

$$

INZ004-005-014>016-021>024-020500-
NORTH CENTRAL INDIANA

CITY           SKY/WX    TMP DP  RH WIND       PRES   REMARKS
GOSHEN         CLEAR     71  66  84 SW7       29.88R
SOUTH BEND     PTCLDY    72  66  81 SW7       29.87R

$$

INZ006>009-017-018-025>027-020500-
NORTHEAST INDIANA

CITY           SKY/WX    TMP DP  RH WIND       PRES   REMARKS
ANGOLA *+      CLEAR     72  63  73 SW6       29.88S
FORT WAYNE     PTCLDY    70  65  84 SW7       29.91R

$$

INZ028-029-035-036-043>045-051>053-020500-
WEST CENTRAL INDIANA

CITY           SKY/WX    TMP DP  RH WIND       PRES   REMARKS
GREENCASTLE +  PTCLDY    70  66  88 CALM      29.93S
LAFAYETTE      MOCLDY    68  66  93 CALM      29.89S
TERRE HAUTE    MOCLDY    72  68  87 S3        29.92S

$$

INZ030>032-037>040-046>048-054>057-064-065-020500-
CENTRAL INDIANA

CITY           SKY/WX    TMP DP  RH WIND       PRES   REMARKS
FRANKFORT +    PTCLDY    68  68 100 SW5       29.93S
INDIANAPOLIS   PTCLDY    71  67  87 SW8       29.92R
-EAGLE CREEK   CLEAR     73  66  78 SW5       29.93R
KOKOMO *+      PTCLDY    70  64  83 SW7       29.91S
MT COMFORT *+  CLEAR     72 N/A N/A S5        29.94S
SHELBYVILLE    CLEAR     73  70  90 S8        29.93S

$$

INZ033-034-041-042-049-050-058-059-020500-
EAST CENTRAL INDIANA

CITY           SKY/WX    TMP DP  RH WIND       PRES   REMARKS
MUNCIE         CLEAR     73  68  84 SW6       29.93R

$$

INZ060-061-067>069-081>083-085>088-020500-
SOUTHWEST INDIANA

CITY           SKY/WX    TMP DP  RH WIND       PRES   REMARKS
EVANSVILLE     MOCLDY    78  72  81 S5        29.95F

$$

INZ062-063-066-070>080-084-089>092-020500-
SOUTH CENTRAL AND SOUTHEAST INDIANA

CITY           SKY/WX    TMP DP  RH WIND       PRES   REMARKS
BLOOMINGTON    CLOUDY    74  71  91 SW7       29.95S

$$



USA.gov is the U.S. government's official web portal to all federal, state and local government web resources and services.